Change the Weather History Date:

Saturday, December 8, 2012

  Actual Average Record
Temperature  
Mean Temperature 40 °F -  
Max Temperature 45 °F - - ()
Min Temperature 36 °F - - ()
Degree Days  
Heating Degree Days 24    
Moisture  
Dew Point 38 °F    
Average Humidity 89    
Maximum Humidity 97    
Minimum Humidity 69    
Precipitation  
Precipitation 0.08 in - - ()
Sea Level Pressure  
Sea Level Pressure 29.88 in    
Wind  
Wind Speed 4 mph ()    
Max Wind Speed 12 mph    
Max Gust Speed 17 mph    
T = Trace of Precipitation, MM = Missing Value Source: Averaged Metar Reports

Daily Weather History Graph

Daily Weather History Graph

Search for Another Location

Airport or City:

Trip Planner

Search our weather history database for the weather conditions in past years. The results will help you decide how hot, cold, wet, or windy it might be!

Date:

Astronomy

Dec. 08, 2012 Rise Set
Actual Time 7:37 AM EST 4:42 PM EST
Civil Twilight 7:04 AM EST 5:14 PM EST
Nautical Twilight 6:29 AM EST 5:50 PM EST
Astronomical Twilight 5:54 AM EST 6:24 PM EST
Moon 1:52 AM EST (12/8) 1:17 PM EST (12/8)
Length of Visible Light 10h 09m
Length of Day
9h 05m
Waning Crescent, 28% of the Moon is Illuminated
Dec 8
Waning Crescent
Dec 13
New
Dec 20
First Quarter
Dec 28
Full
Jan 4
Last Quarter

Hourly Weather History & Observations

Time (EST) Temp. Windchill Dew Point Humidity Pressure Visibility Wind Dir Wind Speed Gust Speed Precip Events Conditions
12:00 AM 42.1 °F - 39.4 °F 90% 29.90 in - South 1.2 mph - N/A   Unknown
1:00 AM 41 °F - 39 °F 89% 29.88 in - SSE 1.2 mph - -  
1:00 AM 40.8 °F - 38.8 °F 93% 29.88 in - SSE 1.2 mph - N/A   Unknown
2:00 AM 41.0 °F - 39.6 °F 95% 29.86 in - South 1.2 mph - N/A   Unknown
3:00 AM 41.7 °F - 40.5 °F 95% 29.84 in - SSE 2.3 mph - 0.01 in   Unknown
4:00 AM 41.4 °F 39.4 °F 40.3 °F 96% 29.84 in - NW 3.5 mph - N/A   Unknown
5:00 AM 41.9 °F - 40.8 °F 96% 29.82 in - NE 1.2 mph - 0.03 in   Unknown
6:00 AM 42.1 °F - 41.0 °F 96% 29.82 in - ENE 2.3 mph - 0.02 in   Unknown
7:00 AM 43 °F - 42 °F 93% 29.81 in - ENE 2.3 mph - -  
7:00 AM 42.6 °F - 41.7 °F 97% 29.81 in - ENE 2.3 mph - N/A   Unknown
8:00 AM 43.0 °F 41.3 °F 42.1 °F 97% 29.79 in - ENE 3.5 mph - 0.02 in   Unknown
9:00 AM 43.2 °F 41.5 °F 42.1 °F 96% 29.78 in - ENE 3.5 mph - N/A   Unknown
10:00 AM 43.3 °F 41.7 °F 42.3 °F 96% 29.79 in - NE 3.5 mph - 0.02 in   Unknown
11:00 AM 44.1 °F 42.5 °F 43.2 °F 97% 29.79 in - NNE 3.5 mph - 0.03 in   Unknown
12:00 PM 44.4 °F 42.9 °F 43.5 °F 97% 29.77 in - North 3.5 mph - N/A   Unknown
1:00 PM 42 °F - 41 °F 97% 29.79 in - NW 5.8 mph - -  
1:00 PM 42.4 °F 38.8 °F 41.4 °F 96% 29.79 in - NW 5.8 mph - N/A   Unknown
2:00 PM 42.4 °F 38.1 °F 40.5 °F 93% 29.80 in - WNW 6.9 mph - N/A   Unknown
3:00 PM 42.8 °F 40.1 °F 40.8 °F 93% 29.82 in - NW 4.6 mph - N/A   Unknown
4:00 PM 40.3 °F 33.4 °F 39.0 °F 95% 29.88 in - North 11.5 mph - 0.01 in   Unknown
5:00 PM 40.1 °F 34.7 °F 36.5 °F 87% 29.92 in - NNW 8.1 mph - 0.01 in   Unknown
6:00 PM 40.5 °F 35.1 °F 34.7 °F 80% 29.96 in - NNW 8.1 mph - N/A   Unknown
7:00 PM 40 °F - 33 °F 69% 30.00 in - NNW 11.5 mph - -  
7:00 PM 40.1 °F 33.2 °F 33.4 °F 77% 30.00 in - NNW 11.5 mph 17.3 mph N/A   Unknown
8:00 PM 39.2 °F 32.5 °F 31.3 °F 73% 30.04 in - NNW 10.4 mph - N/A   Unknown
9:00 PM 37.9 °F 30.5 °F 28.8 °F 70% 30.08 in - NNW 11.5 mph 17.3 mph N/A   Unknown
10:00 PM 36.9 °F 30.1 °F 28.2 °F 71% 30.12 in - NNW 9.2 mph - N/A   Unknown
11:00 PM 36.0 °F 28.5 °F 27.9 °F 72% 30.14 in - North 10.4 mph - N/A   Unknown